| time (UTC) | temp C | wind direction | speed KPH | gust KPH | rain 1hr cm | rain 24hr cm | rain mn cm | humidity % | barometer mb |
| 20260508023558 | 7 | 50 | 0.0 | 6.4 | 0.00 | 0.00 | 0.00 | 83 | 1020.1 |
| 20260508023059 | 7 | 53 | 1.6 | 9.7 | 0.00 | 0.00 | 0.00 | 83 | 1020.0 |
| 20260508022601 | 7 | 61 | 1.6 | 9.7 | 0.00 | 0.00 | 0.00 | 83 | 1019.9 |
| 20260508022059 | 7 | 38 | 3.2 | 8.0 | 0.00 | 0.00 | 0.00 | 83 | 1019.9 |
| 20260508021559 | 7 | 41 | 1.6 | 9.7 | 0.00 | 0.00 | 0.00 | 83 | 1019.9 |
| 20260508021101 | 7 | 34 | 3.2 | 9.7 | 0.00 | 0.00 | 0.00 | 83 | 1019.8 |
| 20260508020604 | 7 | 68 | 1.6 | 8.0 | 0.00 | 0.00 | 0.00 | 83 | 1019.8 |
| 20260508020059 | 7 | 24 | 0.0 | 8.0 | 0.00 | 0.00 | 0.00 | 82 | 1019.9 |
| 20260508015559 | 7 | 326 | 0.0 | 9.7 | 0.00 | 0.00 | 0.00 | 82 | 1019.8 |
| 20260508015059 | 7 | 13 | 3.2 | 9.7 | 0.00 | 0.00 | 0.00 | 82 | 1019.9 |
| 20260508015002 | 7 | 50 | 3.2 | 9.7 | 0.00 | 0.00 | 0.00 | 82 | 1019.9 |
| 20260508014558 | 7 | 59 | 0.0 | 8.0 | 0.00 | 0.00 | 0.00 | 82 | 1019.9 |
| 20260508014059 | 7 | 331 | 4.8 | 8.0 | 0.00 | 0.00 | 0.00 | 82 | 1019.8 |
| 20260508013559 | 7 | 59 | 0.0 | 8.0 | 0.00 | 0.00 | 0.00 | 82 | 1019.9 |
| 20260508013106 | 7 | 50 | 3.2 | 8.0 | 0.00 | 0.00 | 0.00 | 82 | 1019.8 |
| 20260508012559 | 7 | 11 | 1.6 | 6.4 | 0.00 | 0.00 | 0.00 | 82 | 1019.9 |
| 20260508012100 | 7 | 42 | 1.6 | 6.4 | 0.00 | 0.00 | 0.00 | 82 | 1019.9 |
| 20260508011558 | 7 | 322 | 1.6 | 11.3 | 0.00 | 0.00 | 0.00 | 82 | 1019.9 |
| 20260508011058 | 7 | 321 | 4.8 | 11.3 | 0.00 | 0.00 | 0.00 | 81 | 1019.9 |
| 20260508010558 | 7 | 329 | 1.6 | 6.4 | 0.00 | 0.00 | 0.00 | 81 | 1019.9 |
| 20260508010059 | 7 | 38 | 1.6 | 8.0 | 0.00 | 0.00 | 0.00 | 81 | 1019.8 |
| 20260508010001 | 7 | 59 | 3.2 | 8.0 | 0.00 | 0.00 | 0.00 | 81 | 1019.8 |
| 20260508005559 | 7 | 65 | 0.0 | 6.4 | 0.00 | 0.00 | 0.00 | 81 | 1019.8 |
| 20260508005101 | 7 | 18 | 3.2 | 6.4 | 0.00 | 0.00 | 0.00 | 81 | 1019.8 |
| 20260508004602 | 7 | 323 | 0.0 | 8.0 | 0.00 | 0.00 | 0.00 | 81 | 1019.8 |
| 20260508004058 | 7 | 69 | 1.6 | 8.0 | 0.00 | 0.00 | 0.00 | 81 | 1019.7 |
| 20260508003603 | 7 | 23 | 3.2 | 8.0 | 0.00 | 0.00 | 0.00 | 81 | 1019.7 |
| 20260508003059 | 7 | 296 | 0.0 | 6.4 | 0.00 | 0.00 | 0.00 | 81 | 1019.7 |
| 20260508002559 | 7 | 326 | 1.6 | 6.4 | 0.00 | 0.00 | 0.00 | 81 | 1019.7 |
| 20260508002058 | 7 | 66 | 0.0 | 6.4 | 0.00 | 0.00 | 0.00 | 81 | 1019.8 |
| 20260508001558 | 7 | 62 | 1.6 | 8.0 | 0.00 | 0.00 | 0.00 | 80 | 1019.8 |
| 20260508001058 | 7 | 51 | 0.0 | 8.0 | 0.00 | 0.00 | 0.00 | 80 | 1019.8 |
| 20260508000558 | 7 | 51 | 1.6 | 6.4 | 0.00 | 0.00 | 0.00 | 80 | 1019.8 |
| 20260508000058 | 7 | 62 | 1.6 | 8.0 | 0.00 | 0.00 | 0.00 | 80 | 1019.8 |
| 20260507235559 | 7 | 57 | 1.6 | 9.7 | 0.00 | 0.00 | 0.00 | 80 | 1019.9 |
| 20260507235100 | 7 | 59 | 1.6 | 9.7 | 0.00 | 0.00 | 0.00 | 80 | 1019.8 |
| 20260507234600 | 7 | 350 | 1.6 | 8.0 | 0.00 | 0.00 | 0.00 | 80 | 1019.8 |
| 20260507234059 | 7 | 55 | 1.6 | 8.0 | 0.00 | 0.00 | 0.00 | 79 | 1019.8 |
| 20260507233558 | 7 | 83 | 0.0 | 6.4 | 0.00 | 0.00 | 0.00 | 79 | 1019.8 |
| 20260507233059 | 7 | 313 | 0.0 | 9.7 | 0.00 | 0.00 | 0.00 | 79 | 1019.8 |
| 20260507232603 | 7 | 13 | 3.2 | 9.7 | 0.00 | 0.00 | 0.00 | 79 | 1019.7 |
| 20260507232058 | 7 | 38 | 4.8 | 8.0 | 0.00 | 0.00 | 0.00 | 79 | 1019.8 |
| 20260507231559 | 7 | 10 | 1.6 | 6.4 | 0.00 | 0.00 | 0.00 | 79 | 1019.7 |
| 20260507231101 | 7 | 55 | 0.0 | 11.3 | 0.00 | 0.00 | 0.00 | 78 | 1019.8 |
| 20260507230559 | 7 | 29 | 3.2 | 16.1 | 0.00 | 0.00 | 0.00 | 78 | 1019.7 |
| 20260507230108 | 7 | 53 | 4.8 | 16.1 | 0.00 | 0.00 | 0.00 | 78 | 1019.8 |
| 20260507225559 | 7 | 57 | 1.6 | 8.0 | 0.00 | 0.00 | 0.00 | 78 | 1019.8 |
| 20260507225101 | 7 | 98 | 1.6 | 9.7 | 0.00 | 0.00 | 0.00 | 78 | 1019.8 |
| 20260507224600 | 7 | 55 | 3.2 | 11.3 | 0.00 | 0.00 | 0.00 | 78 | 1019.8 |
| 20260507224057 | 7 | 55 | 3.2 | 14.5 | 0.00 | 0.00 | 0.00 | 78 | 1019.7 |
| 20260507223601 | 7 | 57 | 3.2 | 12.9 | 0.00 | 0.00 | 0.00 | 78 | 1019.8 |
| 20260507223058 | 7 | 313 | 1.6 | 9.7 | 0.00 | 0.00 | 0.00 | 78 | 1019.8 |
| 20260507222601 | 7 | 68 | 3.2 | 12.9 | 0.00 | 0.00 | 0.00 | 78 | 1019.7 |
| 20260507222058 | 7 | 342 | 3.2 | 12.9 | 0.00 | 0.00 | 0.00 | 79 | 1019.7 |
| 20260507221602 | 7 | 309 | 1.6 | 8.0 | 0.00 | 0.00 | 0.00 | 79 | 1019.7 |
| 20260507221100 | 7 | 321 | 3.2 | 8.0 | 0.00 | 0.00 | 0.00 | 79 | 1019.7 |
| 20260507220558 | 7 | 22 | 3.2 | 9.7 | 0.00 | 0.00 | 0.00 | 79 | 1019.6 |
| 20260507220059 | 7 | 15 | 4.8 | 11.3 | 0.00 | 0.00 | 0.00 | 79 | 1019.6 |
| 20260507215600 | 7 | 350 | 4.8 | 11.3 | 0.00 | 0.00 | 0.00 | 80 | 1019.7 |
| 20260507215059 | 7 | 314 | 3.2 | 6.4 | 0.00 | 0.00 | 0.00 | 80 | 1019.7 |
| 20260507214606 | 7 | 17 | 1.6 | 8.0 | 0.00 | 0.00 | 0.00 | 80 | 1019.7 |
| 20260507214100 | 7 | 39 | 0.0 | 8.0 | 0.00 | 0.00 | 0.00 | 80 | 1019.6 |
| 20260507213559 | 7 | 44 | 1.6 | 8.0 | 0.00 | 0.00 | 0.00 | 80 | 1019.5 |
| 20260507213107 | 7 | 43 | 4.8 | 8.0 | 0.00 | 0.00 | 0.00 | 80 | 1019.5 |
| 20260507212559 | 7 | 49 | 1.6 | 8.0 | 0.00 | 0.00 | 0.00 | 80 | 1019.5 |
| 20260507212100 | 7 | 20 | 3.2 | 12.9 | 0.00 | 0.00 | 0.00 | 80 | 1019.5 |
| 20260507211604 | 7 | 333 | 1.6 | 14.5 | 0.00 | 0.00 | 0.00 | 80 | 1019.5 |
| 20260507211100 | 7 | 336 | 1.6 | 14.5 | 0.00 | 0.00 | 0.00 | 80 | 1019.4 |
| 20260507210559 | 7 | 317 | 1.6 | 6.4 | 0.00 | 0.00 | 0.00 | 81 | 1019.4 |
| 20260507210100 | 7 | 294 | 0.0 | 6.4 | 0.00 | 0.00 | 0.00 | 81 | 1019.4 |
| 20260507205601 | 7 | 29 | 3.2 | 6.4 | 0.00 | 0.00 | 0.00 | 81 | 1019.4 |
| 20260507205104 | 7 | 56 | 0.0 | 8.0 | 0.00 | 0.00 | 0.00 | 81 | 1019.4 |
| 20260507204603 | 8 | 16 | 0.0 | 4.8 | 0.00 | 0.00 | 0.00 | 81 | 1019.4 |
| 20260507204503 | 8 | 17 | 0.0 | 4.8 | 0.00 | 0.00 | 0.00 | 81 | 1019.4 |
| 20260507204102 | 8 | 289 | 0.0 | 4.8 | 0.00 | 0.00 | 0.00 | 80 | 1019.4 |
| 20260507204001 | 8 | 319 | 0.0 | 4.8 | 0.00 | 0.00 | 0.00 | 80 | 1019.4 |
| 20260507203600 | 8 | 317 | 0.0 | 4.8 | 0.00 | 0.00 | 0.00 | 80 | 1019.4 |
| 20260507203101 | 8 | 17 | 1.6 | 8.0 | 0.00 | 0.00 | 0.00 | 80 | 1019.3 |
| 20260507202501 | 8 | 65 | 3.2 | 8.0 | 0.00 | 0.00 | 0.00 | 80 | 1019.2 |
| 20260507202101 | 8 | 78 | 3.2 | 6.4 | 0.00 | 0.00 | 0.00 | 80 | 1019.2 |
| 20260507201605 | 8 | 336 | 1.6 | 6.4 | 0.00 | 0.00 | 0.00 | 80 | 1019.1 |
| 20260507201501 | 8 | 39 | 1.6 | 6.4 | 0.00 | 0.00 | 0.00 | 80 | 1019.2 |
| 20260507201101 | 8 | 326 | 0.0 | 8.0 | 0.00 | 0.00 | 0.00 | 80 | 1019.1 |
| 20260507201001 | 8 | 76 | 1.6 | 8.0 | 0.00 | 0.00 | 0.00 | 80 | 1019.0 |
| 20260507200600 | 8 | 39 | 3.2 | 9.7 | 0.00 | 0.00 | 0.00 | 79 | 1019.0 |
| 20260507195601 | 8 | 38 | 1.6 | 8.0 | 0.00 | 0.00 | 0.00 | 79 | 1018.9 |
| 20260507195100 | 8 | 16 | 3.2 | 6.4 | 0.00 | 0.00 | 0.00 | 79 | 1018.9 |
| 20260507194608 | 8 | 50 | 1.6 | 14.5 | 0.00 | 0.00 | 0.00 | 78 | 1019.0 |
| 20260507194103 | 8 | 312 | 4.8 | 14.5 | 0.00 | 0.00 | 0.00 | 78 | 1018.9 |
| 20260507193602 | 8 | 320 | 1.6 | 14.5 | 0.00 | 0.00 | 0.00 | 78 | 1018.9 |
| 20260507193059 | 8 | 57 | 3.2 | 14.5 | 0.00 | 0.00 | 0.00 | 77 | 1018.9 |
| 20260507193001 | 8 | 19 | 4.8 | 16.1 | 0.00 | 0.00 | 0.00 | 77 | 1018.9 |
| 20260507192559 | 8 | 38 | 4.8 | 17.7 | 0.00 | 0.00 | 0.00 | 77 | 1018.9 |
| 20260507192059 | 8 | 13 | 8.0 | 17.7 | 0.00 | 0.00 | 0.00 | 77 | 1018.8 |
| 20260507191617 | 8 | 317 | 4.8 | 14.5 | 0.00 | 0.00 | 0.00 | 77 | 1018.6 |
| 20260507191059 | 8 | 41 | 3.2 | 9.7 | 0.00 | 0.00 | 0.00 | 77 | 1018.5 |
| 20260507190600 | 8 | 344 | 4.8 | 16.1 | 0.00 | 0.00 | 0.00 | 77 | 1018.4 |
| 20260507190100 | 8 | 42 | 8.0 | 16.1 | 0.00 | 0.00 | 0.00 | 77 | 1018.3 |
| 20260507190006 | 8 | 324 | 8.0 | 16.1 | 0.00 | 0.00 | 0.00 | 77 | 1018.3 |
| 20260507185559 | 8 | 38 | 4.8 | 16.1 | 0.00 | 0.00 | 0.00 | 77 | 1018.3 |
| 20260507185100 | 8 | 32 | 6.4 | 16.1 | 0.00 | 0.00 | 0.00 | 77 | 1018.3 |
| 20260507184501 | 8 | 42 | 6.4 | 16.1 | 0.00 | 0.00 | 0.00 | 77 | 1018.2 |
| 20260507184100 | 8 | 27 | 6.4 | 16.1 | 0.00 | 0.00 | 0.00 | 76 | 1018.3 |
| 20260507184001 | 8 | 39 | 4.8 | 16.1 | 0.00 | 0.00 | 0.00 | 76 | 1018.2 |
| 20260507183600 | 9 | 42 | 8.0 | 17.7 | 0.00 | 0.00 | 0.00 | 76 | 1018.3 |
| 20260507183104 | 9 | 49 | 9.7 | 19.3 | 0.00 | 0.00 | 0.00 | 76 | 1018.2 |
| 20260507182603 | 9 | 19 | 6.4 | 22.5 | 0.00 | 0.00 | 0.00 | 77 | 1018.1 |
| 20260507182100 | 9 | 38 | 8.0 | 22.5 | 0.00 | 0.00 | 0.00 | 77 | 1018.0 |
| 20260507182002 | 9 | 36 | 8.0 | 22.5 | 0.00 | 0.00 | 0.00 | 77 | 1017.9 |
| 20260507181600 | 9 | 307 | 8.0 | 22.5 | 0.00 | 0.00 | 0.00 | 78 | 1017.9 |
| 20260507181100 | 9 | 43 | 4.8 | 9.7 | 0.00 | 0.00 | 0.00 | 78 | 1017.8 |
| 20260507180601 | 9 | 341 | 4.8 | 9.7 | 0.00 | 0.00 | 0.00 | 77 | 1017.7 |
| 20260507180501 | 9 | 51 | 6.4 | 11.3 | 0.00 | 0.00 | 0.00 | 77 | 1017.6 |
| 20260507180106 | 9 | 61 | 3.2 | 11.3 | 0.00 | 0.00 | 0.00 | 77 | 1017.6 |
| 20260507175559 | 9 | 34 | 3.2 | 11.3 | 0.00 | 0.00 | 0.00 | 77 | 1017.6 |
| 20260507175100 | 9 | 32 | 6.4 | 14.5 | 0.00 | 0.00 | 0.00 | 77 | 1017.5 |
| 20260507174600 | 9 | 70 | 4.8 | 14.5 | 0.00 | 0.00 | 0.00 | 77 | 1017.4 |
| 20260507174103 | 9 | 331 | 4.8 | 14.5 | 0.00 | 0.00 | 0.00 | 76 | 1017.4 |
| 20260507173601 | 9 | 57 | 4.8 | 19.3 | 0.00 | 0.00 | 0.00 | 76 | 1017.4 |
| 20260507173059 | 10 | 30 | 11.3 | 19.3 | 0.00 | 0.00 | 0.00 | 76 | 1017.4 |
| 20260507172600 | 10 | 29 | 3.2 | 12.9 | 0.00 | 0.00 | 0.00 | 76 | 1017.4 |
| 20260507172100 | 10 | 23 | 6.4 | 14.5 | 0.00 | 0.00 | 0.00 | 76 | 1017.3 |
| 20260507171559 | 10 | 52 | 3.2 | 14.5 | 0.00 | 0.00 | 0.00 | 77 | 1017.3 |
| 20260507171059 | 10 | 41 | 4.8 | 14.5 | 0.00 | 0.00 | 0.00 | 77 | 1017.3 |
| 20260507170600 | 10 | 338 | 6.4 | 14.5 | 0.00 | 0.00 | 0.00 | 78 | 1017.2 |
| 20260507165559 | 10 | 49 | 1.6 | 9.7 | 0.00 | 0.00 | 0.00 | 78 | 1017.2 |
| 20260507165059 | 10 | 17 | 4.8 | 9.7 | 0.00 | 0.00 | 0.00 | 78 | 1017.0 |
| 20260507164631 | 10 | 322 | 1.6 | 8.0 | 0.00 | 0.00 | 0.00 | 78 | 1017.1 |
| 20260507164059 | 10 | 5 | 1.6 | 8.0 | 0.00 | 0.00 | 0.00 | 78 | 1017.1 |
| 20260507163600 | 10 | 336 | 3.2 | 8.0 | 0.00 | 0.00 | 0.00 | 77 | 1017.1 |
| 20260507163101 | 10 | 298 | 1.6 | 6.4 | 0.00 | 0.00 | 0.00 | 77 | 1017.1 |
| 20260507162600 | 10 | 347 | 0.0 | 9.7 | 0.00 | 0.00 | 0.00 | 77 | 1017.1 |
| 20260507162059 | 10 | 336 | 3.2 | 11.3 | 0.00 | 0.00 | 0.00 | 76 | 1017.1 |
| 20260507161607 | 10 | 304 | 1.6 | 9.7 | 0.00 | 0.00 | 0.00 | 76 | 1017.1 |
| 20260507161100 | 10 | 321 | 1.6 | 8.0 | 0.00 | 0.00 | 0.00 | 76 | 1017.1 |
| 20260507160559 | 10 | 25 | 3.2 | 6.4 | 0.00 | 0.00 | 0.00 | 76 | 1017.1 |
| 20260507160100 | 10 | 82 | 0.0 | 4.8 | 0.00 | 0.00 | 0.00 | 76 | 1017.1 |
| 20260507160003 | 10 | 71 | 0.0 | 4.8 | 0.00 | 0.00 | 0.00 | 76 | 1017.1 |
| 20260507155559 | 10 | 41 | 0.0 | 9.7 | 0.00 | 0.00 | 0.00 | 76 | 1017.1 |
| 20260507155059 | 10 | 22 | 1.6 | 9.7 | 0.00 | 0.00 | 0.00 | 76 | 1017.1 |
| 20260507154559 | 10 | 105 | 1.6 | 11.3 | 0.00 | 0.00 | 0.00 | 77 | 1017.0 |
| 20260507154059 | 10 | 41 | 3.2 | 11.3 | 0.00 | 0.00 | 0.00 | 77 | 1017.0 |
| 20260507153600 | 10 | 46 | 6.4 | 16.1 | 0.00 | 0.00 | 0.00 | 76 | 1016.9 |
| 20260507153059 | 10 | 68 | 6.4 | 16.1 | 0.00 | 0.00 | 0.00 | 77 | 1016.9 |
| 20260507152559 | 10 | 41 | 3.2 | 17.7 | 0.00 | 0.00 | 0.00 | 78 | 1016.8 |
| 20260507152103 | 10 | 28 | 6.4 | 19.3 | 0.00 | 0.00 | 0.00 | 78 | 1016.8 |
| 20260507151604 | 10 | 23 | 6.4 | 19.3 | 0.00 | 0.00 | 0.00 | 78 | 1016.7 |
| 20260507151059 | 10 | 19 | 6.4 | 17.7 | 0.00 | 0.00 | 0.00 | 77 | 1016.7 |
| 20260507150558 | 10 | 25 | 6.4 | 14.5 | 0.00 | 0.00 | 0.00 | 77 | 1016.7 |
| 20260507150059 | 10 | 17 | 6.4 | 14.5 | 0.00 | 0.00 | 0.00 | 76 | 1016.7 |
| 20260507150001 | 10 | 38 | 4.8 | 14.5 | 0.00 | 0.00 | 0.00 | 76 | 1016.7 |
| 20260507145601 | 10 | 51 | 8.0 | 17.7 | 0.00 | 0.00 | 0.00 | 75 | 1016.7 |
| 20260507145100 | 10 | 38 | 8.0 | 17.7 | 0.00 | 0.00 | 0.00 | 75 | 1016.7 |
| 20260507144604 | 10 | 61 | 1.6 | 14.5 | 0.00 | 0.00 | 0.00 | 75 | 1016.6 |
| 20260507144100 | 10 | 43 | 3.2 | 16.1 | 0.00 | 0.00 | 0.00 | 75 | 1016.5 |
| 20260507143559 | 10 | 346 | 4.8 | 14.5 | 0.00 | 0.00 | 0.00 | 75 | 1016.5 |
| 20260507143110 | 10 | 336 | 4.8 | 16.1 | 0.00 | 0.00 | 0.00 | 74 | 1016.5 |
| 20260507142600 | 11 | 350 | 6.4 | 14.5 | 0.00 | 0.00 | 0.00 | 74 | 1016.5 |
| 20260507142100 | 11 | 305 | 3.2 | 14.5 | 0.00 | 0.00 | 0.00 | 73 | 1016.6 |
| 20260507141624 | 11 | 53 | 4.8 | 17.7 | 0.00 | 0.00 | 0.00 | 73 | 1016.5 |
| 20260507141100 | 11 | 41 | 8.0 | 17.7 | 0.00 | 0.00 | 0.00 | 73 | 1016.5 |
| 20260507140602 | 11 | 20 | 4.8 | 12.9 | 0.00 | 0.00 | 0.00 | 73 | 1016.5 |
| 20260507140100 | 11 | 304 | 3.2 | 9.7 | 0.00 | 0.00 | 0.00 | 73 | 1016.6 |
| 20260507135600 | 11 | 350 | 4.8 | 14.5 | 0.00 | 0.00 | 0.00 | 73 | 1016.5 |
| 20260507135059 | 11 | 90 | 4.8 | 19.3 | 0.00 | 0.00 | 0.00 | 74 | 1016.5 |
| 20260507134612 | 11 | 349 | 3.2 | 11.3 | 0.00 | 0.00 | 0.00 | 74 | 1016.5 |
| 20260507134059 | 11 | 57 | 6.4 | 14.5 | 0.00 | 0.00 | 0.00 | 73 | 1016.4 |
| 20260507133559 | 11 | 329 | 4.8 | 14.5 | 0.00 | 0.00 | 0.00 | 74 | 1016.5 |
| 20260507133110 | 10 | 57 | 3.2 | 14.5 | 0.00 | 0.00 | 0.00 | 73 | 1016.5 |
| 20260507132559 | 10 | 39 | 6.4 | 14.5 | 0.00 | 0.00 | 0.00 | 74 | 1016.3 |
| 20260507132102 | 10 | 59 | 3.2 | 12.9 | 0.00 | 0.00 | 0.00 | 74 | 1016.3 |
| 20260507131613 | 10 | 246 | 3.2 | 12.9 | 0.00 | 0.00 | 0.00 | 74 | 1016.3 |
| 20260507131059 | 11 | 50 | 4.8 | 11.3 | 0.00 | 0.00 | 0.00 | 74 | 1016.3 |
| 20260507130559 | 11 | 28 | 6.4 | 14.5 | 0.00 | 0.00 | 0.00 | 72 | 1016.2 |
| 20260507130059 | 11 | 74 | 8.0 | 14.5 | 0.00 | 0.00 | 0.00 | 72 | 1016.2 |
| 20260507130000 | 11 | 57 | 8.0 | 14.5 | 0.00 | 0.00 | 0.00 | 72 | 1016.2 |
| 20260507125600 | 11 | 52 | 4.8 | 14.5 | 0.00 | 0.00 | 0.00 | 72 | 1016.1 |
| 20260507125100 | 11 | 27 | 8.0 | 14.5 | 0.00 | 0.00 | 0.00 | 73 | 1016.0 |
| 20260507124600 | 11 | 57 | 8.0 | 14.5 | 0.00 | 0.00 | 0.00 | 73 | 1016.0 |
| 20260507124059 | 11 | 53 | 4.8 | 14.5 | 0.00 | 0.00 | 0.00 | 74 | 1015.9 |
| 20260507123600 | 11 | 63 | 3.2 | 11.3 | 0.00 | 0.00 | 0.00 | 75 | 1016.0 |
| 20260507123117 | 10 | 11 | 3.2 | 11.3 | 0.00 | 0.00 | 0.00 | 76 | 1015.9 |
| 20260507122601 | 10 | 314 | 1.6 | 8.0 | 0.00 | 0.00 | 0.00 | 77 | 1015.8 |
| 20260507122059 | 10 | 315 | 1.6 | 9.7 | 0.00 | 0.00 | 0.00 | 78 | 1015.8 |
| 20260507121600 | 10 | 311 | 1.6 | 14.5 | 0.00 | 0.00 | 0.00 | 77 | 1015.9 |
| 20260507121100 | 10 | 11 | 3.2 | 16.1 | 0.00 | 0.00 | 0.00 | 77 | 1016.0 |
| 20260507120558 | 10 | 42 | 4.8 | 16.1 | 0.00 | 0.00 | 0.00 | 77 | 1015.9 |
| 20260507120059 | 10 | 29 | 6.4 | 16.1 | 0.00 | 0.00 | 0.00 | 76 | 1015.9 |
| 20260507115600 | 10 | 311 | 3.2 | 11.3 | 0.00 | 0.00 | 0.00 | 76 | 1015.8 |
| 20260507115059 | 10 | 27 | 1.6 | 11.3 | 0.00 | 0.00 | 0.00 | 76 | 1015.8 |
| 20260507114601 | 10 | 98 | 4.8 | 11.3 | 0.00 | 0.00 | 0.00 | 76 | 1015.8 |
| 20260507114059 | 10 | 48 | 3.2 | 9.7 | 0.00 | 0.00 | 0.00 | 76 | 1015.8 |
| 20260507113559 | 10 | 41 | 3.2 | 19.3 | 0.00 | 0.00 | 0.00 | 77 | 1015.8 |
| 20260507113059 | 10 | 61 | 8.0 | 19.3 | 0.00 | 0.00 | 0.00 | 77 | 1015.7 |
| 20260507112600 | 10 | 47 | 8.0 | 14.5 | 0.00 | 0.00 | 0.00 | 77 | 1015.7 |
| 20260507112100 | 10 | 18 | 3.2 | 14.5 | 0.00 | 0.00 | 0.00 | 77 | 1015.8 |
| 20260507111600 | 10 | 59 | 6.4 | 14.5 | 0.00 | 0.00 | 0.00 | 77 | 1015.8 |
| 20260507111100 | 10 | 34 | 3.2 | 9.7 | 0.00 | 0.00 | 0.00 | 77 | 1015.7 |
| 20260507110600 | 10 | 51 | 0.0 | 16.1 | 0.00 | 0.00 | 0.00 | 78 | 1015.6 |
| 20260507110002 | 10 | 52 | 8.0 | 16.1 | 0.00 | 0.00 | 0.00 | 79 | 1015.5 |
| 20260507105559 | 9 | 343 | 1.6 | 20.9 | 0.00 | 0.00 | 0.00 | 79 | 1015.5 |
| 20260507105500 | 9 | 32 | 1.6 | 20.9 | 0.00 | 0.00 | 0.00 | 79 | 1015.5 |
| 20260507105059 | 9 | 46 | 8.0 | 20.9 | 0.00 | 0.00 | 0.00 | 79 | 1015.5 |
| 20260507104605 | 9 | 22 | 8.0 | 16.1 | 0.00 | 0.00 | 0.00 | 79 | 1015.4 |
| 20260507104101 | 9 | 59 | 4.8 | 16.1 | 0.00 | 0.00 | 0.00 | 80 | 1015.4 |
| 20260507103602 | 9 | 19 | 4.8 | 14.5 | 0.00 | 0.00 | 0.00 | 79 | 1015.4 |
| 20260507103059 | 9 | 78 | 4.8 | 14.5 | 0.00 | 0.00 | 0.00 | 80 | 1015.4 |
| 20260507102600 | 9 | 30 | 4.8 | 9.7 | 0.00 | 0.00 | 0.00 | 80 | 1015.2 |
| 20260507102105 | 9 | 323 | 4.8 | 17.7 | 0.00 | 0.00 | 0.00 | 79 | 1015.2 |
| 20260507101602 | 9 | 327 | 8.0 | 17.7 | 0.00 | 0.00 | 0.00 | 78 | 1015.2 |
| 20260507101102 | 9 | 336 | 4.8 | 16.1 | 0.00 | 0.00 | 0.00 | 78 | 1015.1 |
| 20260507100559 | 10 | 33 | 6.4 | 24.1 | 0.00 | 0.00 | 0.00 | 78 | 1014.9 |
| 20260507100504 | 10 | 107 | 6.4 | 24.1 | 0.00 | 0.00 | 0.00 | 78 | 1014.9 |
| 20260507095559 | 9 | 71 | 6.4 | 19.3 | 0.00 | 0.00 | 0.00 | 79 | 1015.0 |
| 20260507095100 | 9 | 51 | 11.3 | 19.3 | 0.00 | 0.00 | 0.00 | 80 | 1014.9 |
| 20260507094600 | 9 | 22 | 11.3 | 19.3 | 0.00 | 0.00 | 0.00 | 80 | 1015.0 |
| 20260507094103 | 9 | 31 | 9.7 | 19.3 | 0.00 | 0.00 | 0.00 | 80 | 1015.0 |
| 20260507093559 | 8 | 329 | 1.6 | 16.1 | 0.00 | 0.00 | 0.00 | 81 | 1015.0 |
| 20260507093059 | 8 | 336 | 8.0 | 19.3 | 0.00 | 0.00 | 0.00 | 81 | 1015.0 |
| 20260507092559 | 8 | 42 | 8.0 | 19.3 | 0.00 | 0.00 | 0.00 | 81 | 1015.0 |
| 20260507092104 | 8 | 15 | 8.0 | 17.7 | 0.00 | 0.00 | 0.00 | 82 | 1014.8 |
| 20260507091600 | 8 | 57 | 4.8 | 14.5 | 0.00 | 0.00 | 0.00 | 82 | 1014.8 |
| 20260507091102 | 8 | 39 | 4.8 | 19.3 | 0.00 | 0.00 | 0.00 | 83 | 1014.8 |
| 20260507091002 | 8 | 329 | 4.8 | 19.3 | 0.00 | 0.00 | 0.00 | 83 | 1014.9 |
| 20260507090600 | 8 | 24 | 6.4 | 19.3 | 0.00 | 0.00 | 0.00 | 83 | 1014.9 |
| 20260507090105 | 8 | 306 | 6.4 | 11.3 | 0.00 | 0.00 | 0.00 | 83 | 1014.9 |
| 20260507085559 | 8 | 296 | 1.6 | 9.7 | 0.00 | 0.03 | 0.00 | 83 | 1014.8 |
| 20260507085100 | 8 | 10 | 4.8 | 16.1 | 0.00 | 0.03 | 0.00 | 84 | 1014.7 |
| 20260507084600 | 8 | 323 | 8.0 | 19.3 | 0.00 | 0.03 | 0.00 | 84 | 1014.6 |
| 20260507084059 | 8 | 36 | 4.8 | 19.3 | 0.00 | 0.03 | 0.00 | 84 | 1014.5 |
| 20260507083603 | 8 | 50 | 3.2 | 17.7 | 0.00 | 0.03 | 0.00 | 84 | 1014.4 |
| 20260507083100 | 7 | 52 | 6.4 | 17.7 | 0.00 | 0.03 | 0.00 | 84 | 1014.1 |
| 20260507082601 | 8 | 324 | 6.4 | 17.7 | 0.00 | 0.03 | 0.00 | 84 | 1014.1 |
| 20260507082100 | 8 | 323 | 4.8 | 17.7 | 0.00 | 0.03 | 0.00 | 84 | 1014.0 |
| 20260507081603 | 8 | 11 | 9.7 | 17.7 | 0.00 | 0.03 | 0.00 | 84 | 1013.9 |
| 20260507081104 | 8 | 23 | 3.2 | 14.5 | 0.00 | 0.03 | 0.00 | 85 | 1014.0 |
| 20260507080600 | 7 | 47 | 6.4 | 16.1 | 0.00 | 0.03 | 0.00 | 84 | 1013.9 |
| 20260507080120 | 8 | 36 | 6.4 | 16.1 | 0.00 | 0.03 | 0.00 | 84 | 1013.9 |
| 20260507080002 | 8 | 56 | 4.8 | 14.5 | 0.00 | 0.03 | 0.00 | 84 | 1013.9 |
| 20260507075602 | 8 | 339 | 6.4 | 14.5 | 0.00 | 0.03 | 0.00 | 84 | 1013.8 |
| 20260507075101 | 7 | 34 | 3.2 | 14.5 | 0.00 | 0.03 | 0.00 | 84 | 1013.8 |
| 20260507074600 | 8 | 32 | 4.8 | 17.7 | 0.00 | 0.03 | 0.00 | 84 | 1013.7 |
| 20260507074100 | 8 | 299 | 4.8 | 17.7 | 0.00 | 0.03 | 0.00 | 84 | 1013.7 |
| 20260507073603 | 8 | 36 | 3.2 | 17.7 | 0.00 | 0.03 | 0.00 | 84 | 1013.7 |
| 20260507073100 | 8 | 59 | 6.4 | 19.3 | 0.00 | 0.03 | 0.00 | 84 | 1013.7 |
| 20260507072602 | 7 | 57 | 8.0 | 19.3 | 0.00 | 0.03 | 0.00 | 84 | 1013.6 |
| 20260507072100 | 7 | 46 | 6.4 | 12.9 | 0.00 | 0.03 | 0.00 | 85 | 1013.6 |
| 20260507071605 | 7 | 317 | 3.2 | 14.5 | 0.00 | 0.03 | 0.00 | 85 | 1013.6 |
| 20260507071100 | 7 | 350 | 6.4 | 14.5 | 0.00 | 0.03 | 0.00 | 85 | 1013.5 |
| 20260507070559 | 7 | 29 | 6.4 | 12.9 | 0.00 | 0.03 | 0.00 | 85 | 1013.4 |
| 20260507070106 | 7 | 16 | 3.2 | 11.3 | 0.00 | 0.03 | 0.00 | 85 | 1013.4 |
| 20260507070002 | 7 | 336 | 3.2 | 16.1 | 0.00 | 0.03 | 0.00 | 85 | 1013.4 |
| 20260507065603 | 7 | 338 | 4.8 | 19.3 | 0.00 | 0.03 | 0.00 | 85 | 1013.3 |
| 20260507065501 | 7 | 10 | 4.8 | 19.3 | 0.00 | 0.03 | 0.00 | 85 | 1013.3 |
| 20260507065059 | 7 | 5 | 8.0 | 19.3 | 0.00 | 0.03 | 0.00 | 85 | 1013.4 |
| 20260507064634 | 7 | 45 | 4.8 | 17.7 | 0.00 | 0.03 | 0.00 | 85 | 1013.4 |
| 20260507064103 | 7 | 298 | 1.6 | 9.7 | 0.00 | 0.03 | 0.00 | 85 | 1013.4 |
| 20260507063600 | 7 | 55 | 4.8 | 16.1 | 0.00 | 0.03 | 0.00 | 85 | 1013.4 |
| 20260507063126 | 7 | 57 | 8.0 | 17.7 | 0.00 | 0.03 | 0.00 | 86 | 1013.3 |
| 20260507062600 | 7 | 54 | 8.0 | 17.7 | 0.00 | 0.03 | 0.00 | 86 | 1013.4 |
| 20260507062100 | 7 | 29 | 6.4 | 12.9 | 0.00 | 0.03 | 0.00 | 86 | 1013.3 |
| 20260507061600 | 7 | 44 | 4.8 | 14.5 | 0.00 | 0.03 | 0.00 | 86 | 1013.3 |
| 20260507061059 | 7 | 321 | 8.0 | 14.5 | 0.00 | 0.03 | 0.00 | 86 | 1013.3 |
| 20260507060559 | 7 | 317 | 4.8 | 16.1 | 0.00 | 0.03 | 0.00 | 86 | 1013.2 |
| 20260507060114 | 7 | 10 | 8.0 | 17.7 | 0.00 | 0.03 | 0.00 | 86 | 1013.2 |
| 20260507055558 | 7 | 38 | 6.4 | 19.3 | 0.00 | 0.03 | 0.00 | 86 | 1013.1 |
| 20260507055057 | 7 | 47 | 6.4 | 19.3 | 0.00 | 0.03 | 0.00 | 86 | 1013.2 |
| 20260507054607 | 7 | 57 | 3.2 | 16.1 | 0.00 | 0.03 | 0.00 | 86 | 1013.0 |
| 20260507054058 | 7 | 53 | 3.2 | 16.1 | 0.00 | 0.03 | 0.00 | 86 | 1012.9 |
| 20260507053558 | 7 | 63 | 1.6 | 16.1 | 0.00 | 0.03 | 0.00 | 86 | 1012.8 |
| 20260507053109 | 7 | 76 | 4.8 | 16.1 | 0.00 | 0.03 | 0.00 | 86 | 1012.6 |
| 20260507052557 | 7 | 39 | 6.4 | 16.1 | 0.00 | 0.03 | 0.00 | 86 | 1012.6 |
| 20260507052058 | 7 | 44 | 6.4 | 16.1 | 0.00 | 0.03 | 0.00 | 86 | 1012.6 |
| 20260507051608 | 7 | 11 | 8.0 | 17.7 | 0.00 | 0.03 | 0.00 | 86 | 1012.5 |
| 20260507051059 | 7 | 53 | 9.7 | 17.7 | 0.00 | 0.03 | 0.00 | 87 | 1012.3 |
| 20260507050600 | 7 | 88 | 6.4 | 20.9 | 0.00 | 0.03 | 0.00 | 87 | 1012.4 |
| 20260507050058 | 7 | 42 | 8.0 | 20.9 | 0.00 | 0.03 | 0.00 | 87 | 1012.4 |
| 20260507045559 | 7 | 315 | 4.8 | 14.5 | 0.00 | 0.03 | 0.00 | 87 | 1012.4 |
| 20260507045058 | 7 | 22 | 6.4 | 14.5 | 0.00 | 0.03 | 0.00 | 87 | 1012.3 |
| 20260507044600 | 7 | 16 | 3.2 | 9.7 | 0.00 | 0.03 | 0.00 | 87 | 1012.2 |
| 20260507044058 | 7 | 326 | 1.6 | 9.7 | 0.00 | 0.03 | 0.00 | 87 | 1012.1 |
| 20260507043559 | 7 | 65 | 4.8 | 11.3 | 0.00 | 0.03 | 0.00 | 87 | 1012.1 |
| 20260507043100 | 7 | 49 | 3.2 | 14.5 | 0.00 | 0.03 | 0.00 | 87 | 1012.0 |
| 20260507042559 | 7 | 43 | 3.2 | 14.5 | 0.00 | 0.03 | 0.00 | 88 | 1011.9 |
| 20260507042058 | 7 | 53 | 4.8 | 14.5 | 0.00 | 0.03 | 0.00 | 88 | 1012.0 |
| 20260507041559 | 7 | 333 | 4.8 | 14.5 | 0.00 | 0.03 | 0.00 | 88 | 1011.9 |
| 20260507041058 | 7 | 51 | 4.8 | 14.5 | 0.00 | 0.03 | 0.00 | 88 | 1012.0 |
| 20260507040559 | 6 | 73 | 3.2 | 12.9 | 0.00 | 0.03 | 0.00 | 88 | 1011.9 |
| 20260507040058 | 6 | 117 | 3.2 | 14.5 | 0.00 | 0.03 | 0.00 | 88 | 1011.9 |
| 20260507040001 | 6 | 52 | 6.4 | 14.5 | 0.00 | 0.03 | 0.00 | 88 | 1011.8 |
| 20260507035600 | 6 | 36 | 3.2 | 16.1 | 0.00 | 0.03 | 0.00 | 88 | 1011.8 |
| 20260507035059 | 6 | 23 | 4.8 | 16.1 | 0.00 | 0.03 | 0.00 | 88 | 1011.7 |
| 20260507034600 | 6 | 54 | 6.4 | 19.3 | 0.00 | 0.03 | 0.00 | 88 | 1011.7 |
| 20260507034059 | 6 | 51 | 8.0 | 19.3 | 0.00 | 0.03 | 0.00 | 88 | 1011.5 |
| 20260507033559 | 6 | 54 | 4.8 | 16.1 | 0.00 | 0.03 | 0.00 | 88 | 1011.5 |
| 20260507033059 | 6 | 54 | 6.4 | 16.1 | 0.00 | 0.03 | 0.00 | 88 | 1011.5 |
| 20260507032600 | 6 | 350 | 4.8 | 14.5 | 0.00 | 0.03 | 0.00 | 88 | 1011.5 |
| 20260507032101 | 6 | 38 | 4.8 | 14.5 | 0.00 | 0.03 | 0.00 | 88 | 1011.5 |
| 20260507031600 | 6 | 41 | 4.8 | 14.5 | 0.00 | 0.03 | 0.00 | 88 | 1011.4 |
| 20260507031059 | 6 | 327 | 4.8 | 14.5 | 0.00 | 0.03 | 0.00 | 88 | 1011.3 |
| 20260507030559 | 6 | 15 | 4.8 | 11.3 | 0.00 | 0.03 | 0.00 | 88 | 1011.2 |
| 20260507025558 | 6 | 5 | 4.8 | 16.1 | 0.00 | 0.03 | 0.00 | 88 | 1011.2 |
| 20260507025058 | 6 | 24 | 4.8 | 17.7 | 0.00 | 0.03 | 0.00 | 88 | 1011.1 |
| 20260507024558 | 6 | 66 | 8.0 | 22.5 | 0.00 | 0.03 | 0.00 | 88 | 1011.0 |
| 20260507024058 | 6 | 39 | 6.4 | 22.5 | 0.00 | 0.03 | 0.00 | 88 | 1011.0 |